Weather History for Pittsfield, IL

Change the Weather History Date:

Monday, December 29, 2008

  Actual Average (KUIN) Record (KUIN)
Temperature  
Mean Temperature 42 °F 27 °F  
Max Temperature 50 °F 35 °F 66 °F (1984)
Min Temperature 35 °F 19 °F -12 °F (1917)
Degree Days  
Heating Degree Days 22 38  
Month to date heating degree days 1015  
Since 1 July heating degree days 2115  
Cooling Degree Days 0 0  
Month to date cooling degree days 0  
Year to date cooling degree days 1094  
Moisture  
Dew Point 29 °F    
Average Humidity 66    
Maximum Humidity 81    
Minimum Humidity 53    
Precipitation  
Precipitation 0.00 in 0.06 in 0.98 in (1984)
Month to date precipitation 2.14  
Year to date precipitation 37.22  
Sea Level Pressure  
Sea Level Pressure 30.13 in    
Wind  
Wind Speed 10 mph (WSW)    
Max Wind Speed 16 mph    
Max Gust Speed 24 mph    
Visibility 10 miles    
Events      
T = Trace of Precipitation, MM = Missing Value Source: NWS Daily Summary

Daily Weather History Graph

Daily Weather History Graph

Search for Another Location

Airport:

Trip Planner

Search our weather history database for the weather conditions in past years. The results will help you decide how hot, cold, wet, or windy it might be!

Date:

Astronomy

Dec. 29, 2008 Rise Set
Actual Time 7:23 AM CST 4:47 PM CST
Civil Twilight 6:53 AM CST 5:17 PM CST
Nautical Twilight 6:19 AM CST 5:51 PM CST
Astronomical Twilight 5:46 AM CST 6:24 PM CST
Moon 8:56 AM CST (12/29) 6:54 PM CST (12/29)
Length of Visible Light 10h 24m
Length of Day
9h 24m
Waxing Crescent, 4% of the Moon is Illuminated
Dec 29
Waxing Crescent
Jan 4
First Quarter
Jan 10
Full
Jan 17
Last Quarter
Jan 26
New

Hourly Weather History & Observations

Time (CST) Temp. Windchill Dew Point Humidity Pressure Visibility Wind Dir Wind Speed Gust Speed Precip Events Conditions
12:06 AM 35.6 °F 28.6 °F 28.4 °F 75% 30.12 in 10.0 mi SW 9.2 mph - N/A   Clear
12:28 AM 35.6 °F 28.6 °F 28.4 °F 75% 30.12 in 10.0 mi SW 9.2 mph - N/A   Clear
1:06 AM 35.6 °F 29.9 °F 28.4 °F 75% 30.12 in 10.0 mi SW 6.9 mph - N/A   Clear
1:28 AM 35.6 °F 30.7 °F 28.4 °F 75% 30.12 in 10.0 mi SW 5.8 mph - N/A   Clear
1:46 AM 35.6 °F 28.0 °F 28.4 °F 75% 30.12 in 10.0 mi SW 10.4 mph - N/A   Clear
2:06 AM 35.6 °F 28.0 °F 28.4 °F 75% 30.12 in 10.0 mi SW 10.4 mph - N/A   Clear
2:26 AM 35.6 °F 28.0 °F 28.4 °F 75% 30.12 in 10.0 mi SW 10.4 mph - N/A   Clear
2:46 AM 35.6 °F 27.5 °F 28.4 °F 75% 30.12 in 10.0 mi SW 11.5 mph - N/A   Clear
3:07 AM 37.4 °F 29.8 °F 28.4 °F 70% 30.12 in 10.0 mi SW 11.5 mph - N/A   Clear
3:26 AM 35.6 °F 28.0 °F 28.4 °F 75% 30.12 in 10.0 mi SW 10.4 mph - N/A   Clear
3:46 AM 35.6 °F 28.6 °F 26.6 °F 70% 30.12 in 10.0 mi SW 9.2 mph - N/A   Clear
4:06 AM 35.6 °F 28.6 °F 26.6 °F 70% 30.11 in 10.0 mi SW 9.2 mph - N/A   Clear
4:26 AM 35.6 °F 28.6 °F 26.6 °F 70% 30.11 in 10.0 mi SW 9.2 mph - N/A   Clear
4:46 AM 35.6 °F 29.2 °F 26.6 °F 70% 30.11 in 10.0 mi SSW 8.1 mph - N/A   Clear
5:07 AM 35.6 °F 28.6 °F 26.6 °F 70% 30.11 in 10.0 mi SW 9.2 mph - N/A   Clear
5:27 AM 35.6 °F 28.6 °F 26.6 °F 70% 30.11 in 10.0 mi SSW 9.2 mph - N/A   Clear
5:46 AM 35.6 °F 28.6 °F 26.6 °F 70% 30.10 in 10.0 mi SSW 9.2 mph - N/A   Clear
6:06 AM 35.6 °F 29.9 °F 26.6 °F 70% 30.10 in 10.0 mi SW 6.9 mph - N/A   Clear
6:26 AM 35.6 °F 28.6 °F 26.6 °F 70% 30.09 in 10.0 mi SSW 9.2 mph - N/A   Clear
6:46 AM 35.6 °F 28.6 °F 26.6 °F 70% 30.09 in 10.0 mi SSW 9.2 mph - N/A   Clear
7:06 AM 35.6 °F 29.2 °F 26.6 °F 70% 30.09 in 10.0 mi SW 8.1 mph - N/A   Clear
7:26 AM 35.6 °F 29.2 °F 26.6 °F 70% 30.10 in 10.0 mi SW 8.1 mph - N/A   Clear
7:48 AM 35.6 °F 29.9 °F 26.6 °F 70% 30.09 in 10.0 mi SSW 6.9 mph - N/A   Clear
8:07 AM 35.6 °F 29.9 °F 26.6 °F 70% 30.09 in 10.0 mi SSW 6.9 mph - N/A   Clear
8:26 AM 37.4 °F 30.8 °F 26.6 °F 65% 30.09 in 10.0 mi SSW 9.2 mph - N/A   Clear
8:46 AM 37.4 °F 31.4 °F 26.6 °F 65% 30.10 in 10.0 mi SW 8.1 mph - N/A   Clear
9:08 AM 39.2 °F 32.0 °F 26.6 °F 61% 30.10 in 10.0 mi SW 11.5 mph - N/A   Clear
9:26 AM 41.0 °F 33.1 °F 24.8 °F 53% 30.10 in 10.0 mi SW 15.0 mph 21.9 mph N/A   Clear
10:07 AM 42.8 °F 36.2 °F 26.6 °F 53% 30.12 in 10.0 mi WSW 12.7 mph 24.2 mph N/A   Clear
10:26 AM 42.8 °F 35.8 °F 28.4 °F 57% 30.12 in 10.0 mi West 13.8 mph 17.3 mph N/A   Clear
10:46 AM 44.6 °F 38.1 °F 28.4 °F 53% 30.13 in 10.0 mi West 13.8 mph 17.3 mph N/A   Clear
11:27 AM 44.6 °F 38.1 °F 30.2 °F 57% 30.12 in 10.0 mi West 13.8 mph 21.9 mph N/A   Clear
11:46 AM 46.4 °F 41.1 °F 30.2 °F 53% 30.12 in 10.0 mi West 11.5 mph 20.7 mph N/A   Clear
12:06 PM 46.4 °F 40.4 °F 30.2 °F 53% 30.11 in 10.0 mi West 13.8 mph 20.7 mph N/A   Clear
12:26 PM 46.4 °F 40.7 °F 32.0 °F 57% 30.12 in 10.0 mi West 12.7 mph 16.1 mph N/A   Clear
12:46 PM 46.4 °F 41.5 °F 33.8 °F 62% 30.12 in 10.0 mi West 10.4 mph 18.4 mph N/A   Clear
1:06 PM 48.2 °F - 33.8 °F 58% 30.13 in 10.0 mi West 12.7 mph - N/A   Clear
1:26 PM 48.2 °F - 33.8 °F 58% 30.13 in 10.0 mi West 10.4 mph - N/A   Clear
1:46 PM 50.0 °F - 33.8 °F 54% 30.14 in 10.0 mi WNW 10.4 mph 17.3 mph N/A   Clear
2:06 PM 50.0 °F - 33.8 °F 54% 30.14 in 10.0 mi WNW 11.5 mph 17.3 mph N/A   Clear
2:26 PM 50.0 °F - 33.8 °F 54% 30.15 in 10.0 mi WNW 10.4 mph 17.3 mph N/A   Clear
2:46 PM 50.0 °F - 33.8 °F 54% 30.16 in 10.0 mi WNW 10.4 mph - N/A   Clear
3:06 PM 50.0 °F - 33.8 °F 54% 30.17 in 10.0 mi WNW 12.7 mph 18.4 mph N/A   Clear
3:26 PM 48.2 °F - 33.8 °F 58% 30.18 in 10.0 mi NW 16.1 mph 21.9 mph N/A   Clear
3:46 PM 46.4 °F 41.5 °F 33.8 °F 62% 30.19 in 10.0 mi NW 10.4 mph 19.6 mph N/A   Clear
4:06 PM 46.4 °F 41.5 °F 33.8 °F 62% 30.20 in 10.0 mi WNW 10.4 mph 17.3 mph N/A   Clear
4:28 PM 44.6 °F 41.4 °F 33.8 °F 66% 30.21 in 10.0 mi WNW 5.8 mph - N/A   Clear
5:26 PM 39.2 °F 34.2 °F 32.0 °F 75% 30.24 in 10.0 mi NW 6.9 mph - N/A   Clear
5:46 PM 37.4 °F 32.8 °F 32.0 °F 81% 30.24 in 10.0 mi NW 5.8 mph - N/A   Clear
6:06 PM 37.4 °F 33.8 °F 30.2 °F 75% 30.24 in 10.0 mi WNW 4.6 mph - N/A   Clear
6:26 PM 37.4 °F 33.8 °F 30.2 °F 75% 30.25 in 10.0 mi WNW 4.6 mph - N/A   Clear
7:06 PM 35.6 °F 31.7 °F 30.2 °F 81% 30.25 in 10.0 mi NW 4.6 mph - N/A   Clear
7:26 PM 33.8 °F 30.8 °F 30.2 °F 87% 30.26 in 10.0 mi NW 3.5 mph - N/A   Clear
7:46 PM 33.8 °F 30.8 °F 30.2 °F 87% 30.26 in 10.0 mi NW 3.5 mph - N/A   Clear
8:06 PM 33.8 °F 30.8 °F 30.2 °F 87% 30.25 in 10.0 mi NW 3.5 mph - N/A   Clear
8:28 PM 33.8 °F 28.6 °F 30.2 °F 87% 30.25 in 10.0 mi NW 5.8 mph - N/A   Clear
8:46 PM 33.8 °F 30.8 °F 30.2 °F 87% 30.24 in 10.0 mi NNW 3.5 mph - N/A   Clear
9:06 PM 33.8 °F 28.6 °F 30.2 °F 87% 30.25 in 10.0 mi NNW 5.8 mph - N/A   Clear
9:26 PM 33.8 °F 28.6 °F 30.2 °F 87% 30.24 in 10.0 mi NNW 5.8 mph - N/A   Clear
9:46 PM 32.0 °F 26.4 °F 30.2 °F 93% 30.24 in 10.0 mi North 5.8 mph - N/A   Clear
10:06 PM 32.0 °F 27.5 °F 30.2 °F 93% 30.24 in 10.0 mi North 4.6 mph - N/A   Clear
10:26 PM 32.0 °F 28.7 °F 30.2 °F 93% 30.25 in 10.0 mi NNW 3.5 mph - N/A   Clear
10:46 PM 30.2 °F 26.7 °F 28.4 °F 93% 30.25 in 10.0 mi North 3.5 mph - N/A   Clear
11:06 PM 30.2 °F - 28.4 °F 93% 30.24 in 10.0 mi Calm Calm - N/A   Clear
11:26 PM 30.2 °F 25.4 °F 28.4 °F 93% 30.22 in 10.0 mi NNE 4.6 mph - N/A   Clear